﻿測定場所 (Monitoring sites),日付 (Measurement date),時間 (Measurement time),線量率 最大値 (max) μGy/h,線量率 最小値 (min) μGy/h,線量率 平均値 (average) μGy/h,
江戸川 (Edogawa),2014-03-16,23:01～24:00,0.0826,0.0717,0.0751,
江戸川 (Edogawa),2014-03-16,22:01～23:00,0.0789,0.0713,0.0751,
江戸川 (Edogawa),2014-03-16,21:01～22:00,0.0825,0.0718,0.0753,
江戸川 (Edogawa),2014-03-16,20:01～21:00,0.0817,0.0720,0.0754,
江戸川 (Edogawa),2014-03-16,19:01～20:00,0.0807,0.0715,0.0748,
江戸川 (Edogawa),2014-03-16,18:01～19:00,0.0822,0.0695,0.0757,
江戸川 (Edogawa),2014-03-16,17:01～18:00,0.0817,0.0714,0.0752,
江戸川 (Edogawa),2014-03-16,16:01～17:00,0.0817,0.0720,0.0756,
江戸川 (Edogawa),2014-03-16,15:01～16:00,0.0822,0.0721,0.0762,
江戸川 (Edogawa),2014-03-16,14:01～15:00,0.0821,0.0719,0.0759,
江戸川 (Edogawa),2014-03-16,13:01～14:00,0.0816,0.0716,0.0758,
江戸川 (Edogawa),2014-03-16,12:01～13:00,0.0848,0.0722,0.0763,
江戸川 (Edogawa),2014-03-16,11:01～12:00,0.0810,0.0722,0.0754,
江戸川 (Edogawa),2014-03-16,10:01～11:00,0.0813,0.0718,0.0760,
江戸川 (Edogawa),2014-03-16,09:01～10:00,0.0793,0.0712,0.0752,
江戸川 (Edogawa),2014-03-16,08:01～09:00,0.0810,0.0691,0.0747,
江戸川 (Edogawa),2014-03-16,07:01～08:00,0.0815,0.0708,0.0743,
江戸川 (Edogawa),2014-03-16,06:01～07:00,0.0809,0.0709,0.0743,
江戸川 (Edogawa),2014-03-16,05:01～06:00,0.0792,0.0708,0.0744,
江戸川 (Edogawa),2014-03-16,04:01～05:00,0.0790,0.0699,0.0737,
江戸川 (Edogawa),2014-03-16,03:01～04:00,0.0806,0.0717,0.0746,
江戸川 (Edogawa),2014-03-16,02:01～03:00,0.0806,0.0713,0.0744,
江戸川 (Edogawa),2014-03-16,01:01～02:00,0.0787,0.0713,0.0741,
江戸川 (Edogawa),2014-03-16,00:01～01:00,0.0791,0.0697,0.0742,
江戸川 (Edogawa),2014-03-15,23:01～24:00,0.0800,0.0704,0.0739,
江戸川 (Edogawa),2014-03-15,22:01～23:00,0.0833,0.0710,0.0744,
江戸川 (Edogawa),2014-03-15,21:01～22:00,0.0778,0.0717,0.0740,
江戸川 (Edogawa),2014-03-15,20:01～21:00,0.0784,0.0706,0.0735,
江戸川 (Edogawa),2014-03-15,19:01～20:00,0.0788,0.0704,0.0739,
江戸川 (Edogawa),2014-03-15,18:01～19:00,0.0830,0.0706,0.0746,
江戸川 (Edogawa),2014-03-15,17:01～18:00,0.0799,0.0703,0.0740,
江戸川 (Edogawa),2014-03-15,16:01～17:00,0.0810,0.0705,0.0748,
江戸川 (Edogawa),2014-03-15,15:01～16:00,0.0812,0.0721,0.0753,
江戸川 (Edogawa),2014-03-15,14:01～15:00,0.0818,0.0716,0.0751,
江戸川 (Edogawa),2014-03-15,13:01～14:00,0.0789,0.0715,0.0743,
江戸川 (Edogawa),2014-03-15,12:01～13:00,0.0781,0.0718,0.0743,
江戸川 (Edogawa),2014-03-15,11:01～12:00,0.0789,0.0708,0.0743,
江戸川 (Edogawa),2014-03-15,10:01～11:00,0.0802,0.0711,0.0744,
江戸川 (Edogawa),2014-03-15,09:01～10:00,0.0793,0.0692,0.0740,
江戸川 (Edogawa),2014-03-15,08:01～09:00,0.0767,0.0695,0.0733,
江戸川 (Edogawa),2014-03-15,07:01～08:00,0.0768,0.0701,0.0730,
江戸川 (Edogawa),2014-03-15,06:01～07:00,0.0791,0.0707,0.0733,
江戸川 (Edogawa),2014-03-15,05:01～06:00,0.0790,0.0696,0.0739,
江戸川 (Edogawa),2014-03-15,04:01～05:00,0.0774,0.0691,0.0729,
江戸川 (Edogawa),2014-03-15,03:01～04:00,0.0782,0.0698,0.0731,
江戸川 (Edogawa),2014-03-15,02:01～03:00,0.0785,0.0684,0.0732,
江戸川 (Edogawa),2014-03-15,01:01～02:00,0.0773,0.0691,0.0729,
江戸川 (Edogawa),2014-03-15,00:01～01:00,0.0782,0.0694,0.0733,
江戸川 (Edogawa),2014-03-14,23:01～24:00,0.0798,0.0707,0.0734,
江戸川 (Edogawa),2014-03-14,22:01～23:00,0.0798,0.0678,0.0732,
江戸川 (Edogawa),2014-03-14,21:01～22:00,0.0781,0.0677,0.0732,
江戸川 (Edogawa),2014-03-14,20:01～21:00,0.0767,0.0701,0.0730,
江戸川 (Edogawa),2014-03-14,19:01～20:00,0.0782,0.0706,0.0733,
江戸川 (Edogawa),2014-03-14,18:01～19:00,0.0781,0.0707,0.0734,
江戸川 (Edogawa),2014-03-14,17:01～18:00,0.0783,0.0705,0.0738,
江戸川 (Edogawa),2014-03-14,16:01～17:00,0.0804,0.0704,0.0733,
江戸川 (Edogawa),2014-03-14,15:01～16:00,0.0796,0.0704,0.0742,
江戸川 (Edogawa),2014-03-14,14:01～15:00,0.0795,0.0700,0.0740,
江戸川 (Edogawa),2014-03-14,13:01～14:00,0.0772,0.0706,0.0734,
江戸川 (Edogawa),2014-03-14,12:01～13:00,0.0807,0.0694,0.0744,
江戸川 (Edogawa),2014-03-14,11:01～12:00,0.0791,0.0710,0.0743,
江戸川 (Edogawa),2014-03-14,10:01～11:00,0.0793,0.0703,0.0736,
江戸川 (Edogawa),2014-03-14,09:01～10:00,0.0759,0.0699,0.0732,
江戸川 (Edogawa),2014-03-14,08:01～09:00,0.0813,0.0696,0.0740,
江戸川 (Edogawa),2014-03-14,07:01～08:00,0.0812,0.0723,0.0755,
江戸川 (Edogawa),2014-03-14,06:01～07:00,0.0848,0.0726,0.0766,
江戸川 (Edogawa),2014-03-14,05:01～06:00,0.0805,0.0706,0.0748,
江戸川 (Edogawa),2014-03-14,04:01～05:00,0.0791,0.0689,0.0737,
江戸川 (Edogawa),2014-03-14,03:01～04:00,0.0799,0.0704,0.0734,
江戸川 (Edogawa),2014-03-14,02:01～03:00,0.0789,0.0705,0.0736,
江戸川 (Edogawa),2014-03-14,01:01～02:00,0.0792,0.0706,0.0738,
江戸川 (Edogawa),2014-03-14,00:01～01:00,0.0779,0.0714,0.0740,
江戸川 (Edogawa),2014-03-13,23:01～24:00,0.0796,0.0705,0.0738,
江戸川 (Edogawa),2014-03-13,22:01～23:00,0.0816,0.0702,0.0753,
江戸川 (Edogawa),2014-03-13,21:01～22:00,0.0850,0.0725,0.0774,
江戸川 (Edogawa),2014-03-13,20:01～21:00,0.0880,0.0735,0.0814,
江戸川 (Edogawa),2014-03-13,19:01～20:00,0.0843,0.0704,0.0774,
江戸川 (Edogawa),2014-03-13,18:01～19:00,0.0860,0.0734,0.0798,
江戸川 (Edogawa),2014-03-13,17:01～18:00,0.0900,0.0762,0.0818,
江戸川 (Edogawa),2014-03-13,16:01～17:00,0.0870,0.0743,0.0804,
江戸川 (Edogawa),2014-03-13,15:01～16:00,0.0845,0.0715,0.0775,
江戸川 (Edogawa),2014-03-13,14:01～15:00,0.0814,0.0718,0.0756,
江戸川 (Edogawa),2014-03-13,13:01～14:00,0.0813,0.0710,0.0752,
江戸川 (Edogawa),2014-03-13,12:01～13:00,0.0815,0.0716,0.0755,
江戸川 (Edogawa),2014-03-13,11:01～12:00,0.0849,0.0724,0.0769,
江戸川 (Edogawa),2014-03-13,10:01～11:00,0.0847,0.0728,0.0778,
江戸川 (Edogawa),2014-03-13,09:01～10:00,0.0830,0.0732,0.0769,
江戸川 (Edogawa),2014-03-13,08:01～09:00,0.0810,0.0718,0.0764,
江戸川 (Edogawa),2014-03-13,07:01～08:00,0.0818,0.0714,0.0761,
江戸川 (Edogawa),2014-03-13,06:01～07:00,0.0828,0.0714,0.0761,
江戸川 (Edogawa),2014-03-13,05:01～06:00,0.0817,0.0710,0.0758,
江戸川 (Edogawa),2014-03-13,04:01～05:00,0.0822,0.0714,0.0764,
江戸川 (Edogawa),2014-03-13,03:01～04:00,0.0831,0.0719,0.0759,
江戸川 (Edogawa),2014-03-13,02:01～03:00,0.0807,0.0722,0.0758,
江戸川 (Edogawa),2014-03-13,01:01～02:00,0.0841,0.0720,0.0760,
江戸川 (Edogawa),2014-03-13,00:01～01:00,0.0822,0.0720,0.0760,
江戸川 (Edogawa),2014-03-12,23:01～24:00,0.0841,0.0720,0.0762,
江戸川 (Edogawa),2014-03-12,22:01～23:00,0.0811,0.0717,0.0763,
江戸川 (Edogawa),2014-03-12,21:01～22:00,0.0812,0.0716,0.0758,
江戸川 (Edogawa),2014-03-12,20:01～21:00,0.0809,0.0716,0.0758,
江戸川 (Edogawa),2014-03-12,19:01～20:00,0.0819,0.0733,0.0767,
江戸川 (Edogawa),2014-03-12,18:01～19:00,0.0849,0.0710,0.0761,
江戸川 (Edogawa),2014-03-12,17:01～18:00,0.0821,0.0725,0.0765,
江戸川 (Edogawa),2014-03-12,16:01～17:00,0.0821,0.0719,0.0771,
江戸川 (Edogawa),2014-03-12,15:01～16:00,0.0830,0.0730,0.0772,
江戸川 (Edogawa),2014-03-12,14:01～15:00,0.0829,0.0719,0.0774,
江戸川 (Edogawa),2014-03-12,13:01～14:00,0.0845,0.0727,0.0770,
江戸川 (Edogawa),2014-03-12,12:01～13:00,0.0816,0.0728,0.0770,
江戸川 (Edogawa),2014-03-12,11:01～12:00,0.0824,0.0733,0.0767,
江戸川 (Edogawa),2014-03-12,10:01～11:00,0.0838,0.0733,0.0769,
江戸川 (Edogawa),2014-03-12,09:01～10:00,0.0804,0.0715,0.0759,
江戸川 (Edogawa),2014-03-12,08:01～09:00,0.0817,0.0722,0.0759,
江戸川 (Edogawa),2014-03-12,07:01～08:00,0.0810,0.0697,0.0751,
江戸川 (Edogawa),2014-03-12,06:01～07:00,0.0813,0.0705,0.0740,
江戸川 (Edogawa),2014-03-12,05:01～06:00,0.0801,0.0717,0.0749,
江戸川 (Edogawa),2014-03-12,04:01～05:00,0.0790,0.0717,0.0749,
江戸川 (Edogawa),2014-03-12,03:01～04:00,0.0813,0.0719,0.0748,
江戸川 (Edogawa),2014-03-12,02:01～03:00,0.0791,0.0716,0.0747,
江戸川 (Edogawa),2014-03-12,01:01～02:00,0.0797,0.0711,0.0751,
江戸川 (Edogawa),2014-03-12,00:01～01:00,0.0808,0.0713,0.0749,
江戸川 (Edogawa),2014-03-11,23:01～24:00,0.0795,0.0718,0.0748,
江戸川 (Edogawa),2014-03-11,22:01～23:00,0.0810,0.0717,0.0750,
江戸川 (Edogawa),2014-03-11,21:01～22:00,0.0829,0.0719,0.0752,
江戸川 (Edogawa),2014-03-11,20:01～21:00,0.0797,0.0707,0.0751,
江戸川 (Edogawa),2014-03-11,19:01～20:00,0.0805,0.0708,0.0751,
江戸川 (Edogawa),2014-03-11,18:01～19:00,0.0808,0.0724,0.0755,
江戸川 (Edogawa),2014-03-11,17:01～18:00,0.0811,0.0722,0.0756,
江戸川 (Edogawa),2014-03-11,16:01～17:00,0.0822,0.0716,0.0754,
江戸川 (Edogawa),2014-03-11,15:01～16:00,0.0813,0.0718,0.0751,
江戸川 (Edogawa),2014-03-11,14:01～15:00,0.0834,0.0717,0.0761,
江戸川 (Edogawa),2014-03-11,13:01～14:00,0.0810,0.0720,0.0756,
江戸川 (Edogawa),2014-03-11,12:01～13:00,0.0811,0.0726,0.0761,
江戸川 (Edogawa),2014-03-11,11:01～12:00,0.0800,0.0712,0.0752,
江戸川 (Edogawa),2014-03-11,10:01～11:00,0.0801,0.0709,0.0747,
江戸川 (Edogawa),2014-03-11,09:01～10:00,0.0808,0.0715,0.0748,
江戸川 (Edogawa),2014-03-11,08:01～09:00,0.0813,0.0710,0.0747,
江戸川 (Edogawa),2014-03-11,07:01～08:00,0.0814,0.0696,0.0743,
江戸川 (Edogawa),2014-03-11,06:01～07:00,0.0796,0.0702,0.0743,
江戸川 (Edogawa),2014-03-11,05:01～06:00,0.0786,0.0703,0.0738,
江戸川 (Edogawa),2014-03-11,04:01～05:00,0.0805,0.0713,0.0741,
江戸川 (Edogawa),2014-03-11,03:01～04:00,0.0823,0.0713,0.0744,
江戸川 (Edogawa),2014-03-11,02:01～03:00,0.0801,0.0706,0.0748,
江戸川 (Edogawa),2014-03-11,01:01～02:00,0.0781,0.0709,0.0742,
江戸川 (Edogawa),2014-03-11,00:01～01:00,0.0806,0.0714,0.0748,
江戸川 (Edogawa),2014-03-10,23:01～24:00,0.0819,0.0714,0.0746,
江戸川 (Edogawa),2014-03-10,22:01～23:00,0.0791,0.0712,0.0741,
江戸川 (Edogawa),2014-03-10,21:01～22:00,0.0794,0.0716,0.0748,
江戸川 (Edogawa),2014-03-10,20:01～21:00,0.0847,0.0700,0.0749,
江戸川 (Edogawa),2014-03-10,19:01～20:00,0.0779,0.0708,0.0742,
江戸川 (Edogawa),2014-03-10,18:01～19:00,0.0803,0.0710,0.0743,
江戸川 (Edogawa),2014-03-10,17:01～18:00,0.0814,0.0713,0.0747,
江戸川 (Edogawa),2014-03-10,16:01～17:00,0.0806,0.0705,0.0749,
江戸川 (Edogawa),2014-03-10,15:01～16:00,0.0817,0.0715,0.0754,
江戸川 (Edogawa),2014-03-10,14:01～15:00,0.0829,0.0711,0.0760,
江戸川 (Edogawa),2014-03-10,13:01～14:00,0.0794,0.0713,0.0746,
江戸川 (Edogawa),2014-03-10,12:01～13:00,0.0811,0.0715,0.0751,
江戸川 (Edogawa),2014-03-10,11:01～12:00,0.0780,0.0709,0.0742,
江戸川 (Edogawa),2014-03-10,10:01～11:00,0.0792,0.0710,0.0749,
江戸川 (Edogawa),2014-03-10,09:01～10:00,0.0793,0.0712,0.0744,
江戸川 (Edogawa),2014-03-10,08:01～09:00,0.0782,0.0707,0.0740,
江戸川 (Edogawa),2014-03-10,07:01～08:00,0.0797,0.0703,0.0741,
江戸川 (Edogawa),2014-03-10,06:01～07:00,0.0777,0.0702,0.0739,
江戸川 (Edogawa),2014-03-10,05:01～06:00,0.0791,0.0701,0.0740,
江戸川 (Edogawa),2014-03-10,04:01～05:00,0.0807,0.0717,0.0752,
江戸川 (Edogawa),2014-03-10,03:01～04:00,0.0811,0.0716,0.0749,
江戸川 (Edogawa),2014-03-10,02:01～03:00,0.0800,0.0713,0.0745,
江戸川 (Edogawa),2014-03-10,01:01～02:00,0.0805,0.0708,0.0745,
江戸川 (Edogawa),2014-03-10,00:01～01:00,0.0801,0.0719,0.0743,
